Location: Bottom School (historical)
(37.9078°N, 89.3593°W)
Time: 02:15:08
(UTC+00:00)

SL-4 R/B - Visible Passes

Search period start: 30 June 2022 00:00
Search period end: 10 July 2022 00:00
Orbit: 426 x 654 km, 51.6° (Epoch: 29 June)

Date Brightness Start Highest point End Pass type
(mag) Time Alt. Az. Time Alt. Az. Time Alt. Az.
30 Jun 3.4 07:13:26 33° NE 07:13:26 33° NE 07:15:42 10° NE visible
30 Jun 4.4 08:49:33 10° WNW 08:52:00 16° NNW 08:54:35 10° NNE visible
01 Jul 3.5 07:04:45 31° NNE 07:04:45 31° NNE 07:06:58 10° NE visible
01 Jul 4.5 08:41:21 10° NW 08:43:30 15° NNW 08:45:45 10° NNE visible
02 Jul 3.7 06:56:00 28° NNE 06:56:00 28° NNE 06:58:13 10° NE visible
02 Jul 4.6 08:33:10 10° NW 08:35:01 13° NNW 08:36:55 10° NNE visible
03 Jul 3.9 06:47:12 26° N 06:47:12 26° N 06:49:27 10° NE visible
03 Jul 4.7 08:25:01 10° NNW 08:26:31 12° N 08:28:04 10° NNE visible
03 Jul 4.9 10:05:31 10° NNW 10:07:25 13° NNE 10:09:23 10° NE visible
04 Jul 4.0 06:38:20 23° N 06:38:20 23° N 06:40:39 10° NNE visible
04 Jul 4.9 08:16:52 10° NNW 08:18:02 11° N 08:19:15 10° NNE visible
04 Jul 4.8 09:56:46 10° NNW 09:58:54 14° NNE 10:01:08 10° NE visible
05 Jul 4.2 06:29:23 21° NNW 06:29:23 21° NNW 06:31:49 10° NNE visible
05 Jul 5.0 08:08:43 10° NNW 08:09:34 11° N 08:10:25 10° N visible
05 Jul 4.8 09:48:00 10° NNW 09:50:23 15° NNE 09:52:53 10° NE visible
06 Jul 4.3 06:20:20 18° NNW 06:20:22 18° NNW 06:22:58 10° NNE visible
06 Jul 5.2 08:00:32 10° N 08:01:05 10° N 08:01:37 10° N visible
06 Jul 4.8 09:39:13 10° NNW 09:41:51 17° NNE 09:44:36 10° ENE visible
07 Jul 4.5 06:11:05 15° NW 06:11:49 16° NNW 06:14:07 10° NNE visible
07 Jul 5.2 07:52:12 10° N 07:52:36 10° N 07:52:59 10° N visible
07 Jul 4.8 09:30:25 10° NNW 09:33:17 19° NNE 09:36:18 10° ENE visible
08 Jul 4.3 04:26:06 14° NE 04:26:06 14° NE 04:26:40 10° NE visible
08 Jul 4.8 06:01:26 10° NW 06:03:17 14° NNW 06:05:14 10° NNE visible
08 Jul 5.3 07:43:32 10° N 07:44:06 10° N 07:44:40 10° NNE visible
08 Jul 4.6 09:21:37 10° NNW 09:24:42 22° NNE 09:27:58 10° ENE visible
09 Jul4.802:40:05ENE02:40:05ENE02:30:55SSWvisible
09 Jul 3.0 04:15:15 36° N 04:15:15 36° N 04:17:54 10° NE visible
09 Jul 5.0 05:53:16 10° NW 05:54:46 12° NNW 05:56:18 10° NNE visible
09 Jul 5.2 07:34:45 10° N 07:35:36 11° N 07:36:28 10° NNE visible
09 Jul 4.3 09:12:50 10° NNW 09:16:06 26° NNE 09:19:34 10° E visible
